Regional Weather Roundup
Issued by NWS

Home | Current Version | Previous Version | Graphics & Text | Print | Product List | Glossary Off
Versions: 1 2 3 4 5 6 7 8 9 10 11 12 13 14 15 16 17 18 19 20 21 22 23 24 25 26 27 28 29 30 31 32 33 34 35 36 37 38 39 40 41 42 43 44 45 46 47 48 49 50

000
ASUS45 KBOU 240410
RWRCO

WEATHER ROUNDUP FOR COLORADO
NATIONAL WEATHER SERVICE DENVER/BOULDER CO
900 PM MST THU NOV 23 2017

NOTE: "FAIR" INDICATES FEW OR NO CLOUDS BELOW 12000 FEET WITH NO
SIGNIFICANT WEATHER AND/OR OBSTRUCTIONS TO VISIBILITY.

COZ001>005-013-030-031-240500-
...NORTHWEST COLORADO...

CITY           SKY/WX    TMP DP  RH WIND       PRES   REMARKS
CRAIG          FAIR      35  30  82 CALM      30.16F
HAYDEN         FAIR      39  33  79 SE3       30.17F
MEEKER         FAIR      37  32  82 NE5       30.18S
RABBIT EARS PA FAIR      32  32 100 W12G21    30.30F WCI  23
STEAMBOAT SPGS FAIR      37  33  88 CALM      30.18F
WALDEN         FAIR      46  28  49 SW21      30.18F
$$

COZ006>008-011-240500-
...WEST CENTRAL VALLEYS...

CITY           SKY/WX    TMP DP  RH WIND       PRES   REMARKS
GRAND JUNCTION FAIR      45  33  63 E6        30.16S
MONTROSE       FAIR      40  31  70 SE10      30.22F
EAGLE          FAIR      36  30  79 NE6       30.23
RIFLE          FAIR      38  34  85 CALM      30.19F
DELTA          FAIR      45  32  60 NE5       30.20S
NUCLA          FAIR      45  28  53 E10       30.25S
$$

COZ017>023-064>068-240500-
...SOUTHWEST COLORADO...

CITY           SKY/WX    TMP DP  RH WIND       PRES   REMARKS
DURANGO        FAIR      35  26  69 N9        30.25S WCI  28
CORTEZ         FAIR      36  27  69 E8        30.23S
PAGOSA SPRINGS FAIR      35  26  69 CALM      30.29F
TELLURIDE      FAIR      40  14  34 SE7       30.37S
WOLF CREEK PAS FAIR      36  12  38 SW10      30.51F
$$

COZ009-010-012-014-032>034-037-058>063-240500-
...CENTRAL COLORADO...

CITY           SKY/WX    TMP DP  RH WIND       PRES   REMARKS
ASPEN          FAIR      34  27  75 S9        30.25F WCI  27
BUENA VISTA    FAIR      32  22  67 NW5       30.20F WCI  27
COPPER MTN     FAIR      34  21  60 MISG      30.39F
BERTHOUD PASS  FAIR      30  19  64 NW39G56   30.32F WCI  13
COTTONWOOD PAS FAIR      50  16  25 NW6       30.28F
GUNNISON       FAIR      27  25  92 CALM      30.28F
KREMMLING      FAIR      34  30  86 CALM      30.22S
LEADVILLE      FAIR      38  15  39 VRB5      30.30F
MONARCH PASS   FAIR      32  25  74 W44       30.46F WCI  15
SALIDA         FAIR      47  24  39 CALM      30.25S
SUNLIGHT       FAIR      34  19  55 SW14G21   30.40S WCI  24
WILKERSON PASS FAIR      36  10  35 SW10      30.33F
$$

COZ069>075-240500-
...SAN LUIS VALLEY/SANGRE DE CRISTO MOUNTAINS...

CITY           SKY/WX    TMP DP  RH WIND       PRES   REMARKS
ALAMOSA        FAIR      30  22  72 W5        30.25S WCI  25
DEL NORTE      FAIR      35  24  64 W7        30.27F WCI  29
LA VETA PASS   FAIR      41  18  38 MISG        N/A
SAGUACHE       FAIR      30  21  69 NW9       30.27F WCI  22
$$

COZ035-036-038>040-240500-
...NORTHERN COLORADO FRONT RANGE...

CITY           SKY/WX    TMP DP  RH WIND       PRES   REMARKS
DENVER INTL AP MOCLDY    58  23  26 SW15      29.94F
DMNS CITY PARK   N/A     50  26  39 E10       29.96F
AURORA         MOCLDY    54  23  30 S9        29.97F
FRONT RANGE AP FAIR      59  26  28 S8        29.96F
ERIE MUNI ARPT FAIR      47  26  43 CALM      29.99F
BOULDER MUN AP FAIR      57  25  28 SW3       29.94F
CENTENNIAL     MOCLDY    52  25  35 S6        29.99F
BROOMFIELD     MOCLDY    64  23  20 SW21G30   29.96F
FORT COLLINS   FAIR      49  35  58 E6        29.92F
LONGMONT       FAIR      59  28  30 CALM      29.95F
$$

COZ041-046-047-076>085-087-088-240500-
...PIKES PEAK/PALMER DIVIDE AND SOUTHERN FOOTHILLS...

CITY           SKY/WX    TMP DP  RH WIND       PRES   REMARKS
COLO. SPRINGS  MOCLDY    47  30  51 NE12      30.04F
A. F. ACADEMY  FAIR      58  14  17 NE6       30.04F
SCHRIEVER AFB  CLOUDY    51  28  42 CALM      30.05S
CHEYENNE MTN   CLOUDY    55  19  24 NW7       30.02F
ELLICOTT         N/A      1   1 100 S7        30.02F WCI -12
FALCON         FAIR      53  17  24 W16       30.07F
FORT CARSON    CLOUDY    50  31  48 N6        30.01F
LIMON          FAIR      40  30  67 N3        29.98F
MONUMENT HILL  FAIR      50  19  29 SW8       30.09S
CANON CITY     FAIR      59  25  27 NW7       30.02F
WALSENBURG     FAIR      59  21  23 W17       30.06F
TRINIDAD       FAIR      52  31  44 W10       30.05F
$$

COZ042>045-048>051-090-091-240500-
...NORTHEAST COLORADO...

CITY           SKY/WX    TMP DP  RH WIND       PRES   REMARKS
GREELEY ARPT   FAIR      41  33  73 NE6       29.92F
AKRON          FAIR      52  26  36 SW13      29.91F
BURLINGTON     FAIR      51  36  56 SW13      29.92F
WRAY           NOT AVBL
YUMA           FAIR      43  32  65 W8        29.89F
STERLING       FAIR      45  32  61 S9        29.87F
HOLYOKE        FAIR      46  30  53 W9        29.86F
FORT MORGAN    FAIR      50  27  40 W5        29.91F
$$

COZ086-089-092>099-240500-
...SOUTHEAST COLORADO...

CITY           SKY/WX    TMP DP  RH WIND       PRES   REMARKS
PUEBLO         FAIR      48  31  51 NW5       29.96F
LA JUNTA       FAIR      48  33  56 W3        29.95F
LAMAR          FAIR      43  31  62 CALM      29.91F
SPRINGFIELD      N/A     48  34  58 SW10      29.97F
$$



USA.gov is the U.S. government's official web portal to all federal, state and local government web resources and services.